Location: Cuzcurrita-R�o Tir�n
(42.5415°N, 2.9642°W)
Time: 21:42:33
(UTC+00:00)

Cosmos 2228 - Pass Details

Date: 17 January 2021
Orbit: 589 x 617 km, 82.5° (Epoch: 02 March)

Event Time Altitude Azimuth Distance (km) Brightness Sun altitude
Rises 18:03:18 0° 355° (N) 2,835 6.3 -10.4°
Reaches altitude 10° 18:05:32 10° 359° (N) 1,931 5.4 -10.8°
Maximum altitude 18:09:45 60° 80° (E) 684 3.0 -11.6°
Drops below altitude 10° 18:13:58 10° 161° (SSE) 1,928 5.6 -12.3°
Sets 18:16:11 0° 165° (SSE) 2,829 6.5 -12.7°
